Regional Weather Roundup
Issued by NWS Columbia, SC

Home | Current Version | Previous Version | Text Only | Print | Product List | Glossary On
Versions: 1 2 3 4 5 6 7 8 9 10 11 12 13 14 15 16 17 18 19 20 21 22 23 24 25 26 27 28 29 30 31 32 33 34 35 36 37 38 39 40 41 42 43 44 45 46 47 48 49 50
000
ASUS42 KCAE 261610
RWRCAE
REGIONAL WEATHER ROUNDUP
NATIONAL WEATHER SERVICE COLUMBIA SC
1200 PM EDT SUN APR 26 2015

NOTE: "FAIR" INDICATES FEW OR NO CLOUDS BELOW 12,000 FEET WITH NO
SIGNIFICANT WEATHER AND/OR OBSTRUCTIONS TO VISIBILITY.

NOT ALL STATIONS ARE QUALITY CONTROLLED BY THE NATIONAL
WEATHER SERVICE. USE DATA WITH CAUTION...ESPECIALLY
DEWPOINT OBSERVATIONS.

SCZ001>056-GAZ040-063>065-077-261700-
...UPSTATE SOUTH CAROLINA...

CITY           SKY/WX    TMP DP  RH WIND       PRES   REMARKS
ANDERSON       SUNNY     78  59  51 W10G20    29.63F
LIBERTY        MOSUNNY   78  57  48 W13G20    29.62F
SPARTANBURG    MOSUNNY   63  63 100 E7        29.64F
CLEMSON        SUNNY     78  56  46 W9G21     29.64F
GREENVILLE     SUNNY     77  56  48 SW9G21    29.63F
GREENWOOD      SUNNY     78  61  55 W13G21    29.65S
GREER          MOSUNNY   77  59  53 NE10      29.61F
ROCK HILL      CLOUDY    52  50  93 NE8       29.69R FOG
CHESTER        CLOUDY    57  55  94 NE12      29.68R FOG
LAURENS        SUNNY     77  66  69 W7G18     29.63S


...CENTRAL SOUTH CAROLINA...

CITY           SKY/WX    TMP DP  RH WIND       PRES   REMARKS
COLUMBIA APT   SUNNY     82  60  47 W13       29.61F
COLUMBIA OWENS SUNNY     81  59  47 NW9G20    29.62F
DARLINGTON     CLOUDY    55  52  88 NE10      29.69S
FLORENCE       CLOUDY    60  55  83 NE10      29.66R
MCENTIRE ANGB  MOSUNNY   79  65  62 W10       29.62F
ORANGEBURG     SUNNY     79  64  60 W13       29.64S
SUMTER SHAW    PTSUNNY   78  64  62 SW7       29.60F
NEWBERRY       MOSUNNY   77  61  57 W17       29.65F
AIKEN          FAIR      77  61  57 W10G18    29.67F
BARNWELL         N/A    N/A N/A N/A MISG        N/A
MANNING        FAIR      77  -6   4 W6G18     29.62F
CAMDEN         CLOUDY    63  57  82 NE10      29.65S
LANCASTER      CLOUDY    55  55 100 NE8       29.68R FOG
WINNSBORO      MOSUNNY   77  61  57 SW9G16    29.62F


...EASTERN AND COASTAL SOUTH CAROLINA...

CITY           SKY/WX    TMP DP  RH WIND       PRES   REMARKS
MYRTLE BEACH   PTSUNNY   75  63  64 NW14      29.64R
N MYRTLE BCH   PTSUNNY   72  63  73 N10       29.62R
CONWAY         CLOUDY    68  63  83 NW6       29.64R
MARION         CLOUDY    57  55  94 N9        29.67R
HARTSVILLE     CLOUDY    55  52  88 NE9       29.68S
FLORENCE       CLOUDY    60  55  83 NE10      29.66R
DARLINGTON     CLOUDY    55  52  88 NE10      29.69S
CHARLESTON APT MOSUNNY   78  65  63 W10G20    29.64F
MOUNT PLEASANT FAIR      79  66  65 MISG      29.63F
WALTERBORO     SUNNY     77  64  65 W8        29.66F
BEAUFORT       SUNNY     80  67  64 W13G22    29.67S


...EASTERN GEORGIA...

CITY           SKY/WX    TMP DP  RH WIND       PRES   REMARKS
AUGUSTA BUSH F MOSUNNY   79  66  64 W13       29.65F
AUGUSTA DANIEL SUNNY     77  64  64 SW8       29.67S
THOMSON        SUNNY     77  69  74 W13       29.72R
WASHINGTON     FAIR      81  70  69 W15       29.67F
CLAXTON        FAIR      77  68  73 W8        29.71S
SYLVANIA       SUNNY     78  69  72 W9        29.68S
STATESBORO       N/A     78  68  71 SW9       29.69S
SAVANNAH       MOSUNNY   79  66  64 W15       29.69S


...SOUTHERN NORTH CAROLINA...

CITY           SKY/WX    TMP DP  RH WIND       PRES   REMARKS
CHARLOTTE      CLOUDY    51  47  86 NE7       29.70R FOG
MONROE         CLOUDY    51  49  92 NE10      29.69R FOG
WADESBORO      CLOUDY    52  49  90 N8        29.70S
ROCKINGHAM     CLOUDY    52  48  88 N6        29.69S
RUTHERFORDTON  CLOUDY    55  55 100 E5        29.68R
ASHEVILLE      CLOUDY    63  53  70 N6        29.68R

$$


USA.gov is the U.S. government's official web portal to all federal, state and local government web resources and services.